"Pseudo-MPEC" for P10LiAR

Created 2019 Jan 14 11:18:26 UT using Find_Orb

Click here for an explanation of pseudo-MPECs

 
 Astrometry: 
     P10LiAR  C2019 01 09wu;sOub3R']L]p3xVf%V@qMo.AstrometryN!Q%vmy%h;ltwPFZnF51
     P10LiAR  C2019 01 0957!U.N$pW%H\!o5Z7QM2N#XbKO`Dredacted;4Q3Shh[G_8L-u(VF51
     P10LiAR  C2019 01 09Cl8+qgaWePcxV@xwg]6:Devu^n7NM4te@F,[#q1foA\click6tZWF51
     P10LiAR ^C2019 01 11.37240608 34 45.259+22 51 38.83   ~1BKI 21.73GVNEOCP568
     P10LiAR ^C2019 01 11.37336108 34 45.250+22 51 40.28   ~1BKI 21.75GVNEOCP568
     P10LiAR ^C2019 01 11.37431208 34 45.239+22 51 41.71   ~1BKI 21.65GVNEOCP568
     P10LiAR KC2019 01 110d,XU4`j.K0hereTXE2)1RyRiiLIF^Mrnb?XL%k(9QrV\0h[BrlO691
     P10LiAR KC2019 01 11ncH@10`D6e5rY@D[PZk?hk.qp-i3d2v2Sbvm,22A_k;]EforL4n/691
     P10LiAR KC2019 01 11=r0m*=Uda8v\QBQ5w-N;AB%ca^Go\gF2q=Aw')jexplanationW?691

Station data:
(568) Mauna Kea  (N19.826116 W155.472200)  US/Hawaii.
(691) Steward Observatory, Kitt Peak - Spacewatch  (N31.962174 W111.600327)
   US/Arizona.  Observer J. V. Scotti. 0.9-m f/3 reflector + CCD.
(F51) Pan-STARRS 1, Haleakala  (N20.707235 W156.255910)  US/Hawaii.
   Observers N. Primak, A. Schultz, S. Watters, J. Thiel, T. Goggia. Measurer
   PS1 Science Consortium. 1.8-m Ritchey-Chrétien + CCD.

Orbital elements:  P10LiAR
   Perihelion 2018 Dec 18.513729 +/- 26 TT = 12:19:46 (JD 2458471.013729)
Epoch 2019 Jan 11.0 TT = JDT 2458494.5   Earth MOID: 0.5259   AutoNEOCP
M   5.19185761 +/- 5.6              (J2000 ecliptic)
n   0.22105925 +/- 0.0358           Peri.  351.26312 +/- 400
a   2.70892454 +/- 0.292            Node   109.60457 +/- 0.16
e   0.4433512 +/- 0.0657            Incl.   13.20505 +/- 0.37
P   4.46                   H 21.9   G  0.15   U 10.5  
q 1.50791957 +/- 0.0217    Q 3.90992952 +/- 0.568
From 9 observations 2019 Jan. 9-11; mean residual 0".25
Residuals in arcseconds: 
190109 F51  .01+  .01-    190111 568  .04+  .08-    190111 691  .40-  .53+    
190109 F51  .00   .15+    190111 568  .03+  .08-    190111 691  .12+  .34+    
190109 F51  .01-  .14-    190111 568  .00   .09-    190111 691  .21+  .63-    

Ephemerides (geocentric):
Date (UTC) HH   RA              Dec         delta   r     elong  mag " sig PA
---- -- -- --  -------------   -----------  ------ ------ -----  --- ---- ---
2019 01 14 11  08 34 26.814   +24 08 21.21  .55323 1.5286 167.7 22.1 8.95 161
2019 01 14 12  08 34 26.484   +24 09 23.15  .55325 1.5287 167.7 22.1 9.14 161
2019 01 14 13  08 34 26.152   +24 10 25.08  .55326 1.5287 167.8 22.1 9.34 161
2019 01 14 14  08 34 25.818   +24 11 27.01  .55327 1.5288 167.8 22.1 9.53 161
2019 01 14 15  08 34 25.481   +24 12 28.92  .55329 1.5289 167.8 22.1 9.73 161
2019 01 14 16  08 34 25.143   +24 13 30.83  .55330 1.5289 167.9 22.1 9.93 161
2019 01 14 17  08 34 24.802   +24 14 32.72  .55332 1.5290 167.9 22.1 10.1 161
2019 01 14 18  08 34 24.459   +24 15 34.61  .55333 1.5291 167.9 22.1 10.3 161
2019 01 14 19  08 34 24.113   +24 16 36.49  .55335 1.5291 168.0 22.1 10.5 161
2019 01 14 20  08 34 23.766   +24 17 38.35  .55337 1.5292 168.0 22.1 10.7 161
2019 01 14 21  08 34 23.416   +24 18 40.21  .55338 1.5292 168.0 22.1 11.0 161
2019 01 14 22  08 34 23.064   +24 19 42.06  .55340 1.5293 168.1 22.1 11.2 161
2019 01 14 23  08 34 22.711   +24 20 43.89  .55342 1.5294 168.1 22.1 11.4 161
2019 01 15 00  08 34 22.355   +24 21 45.72  .55343 1.5294 168.1 22.1 11.6 161
2019 01 15 01  08 34 21.996   +24 22 47.53  .55345 1.5295 168.2 22.1 11.8 161
2019 01 15 02  08 34 21.636   +24 23 49.33  .55347 1.5296 168.2 22.1 12.0 161
2019 01 15 03  08 34 21.274   +24 24 51.13  .55349 1.5296 168.2 22.1 12.2 161
2019 01 15 04  08 34 20.909   +24 25 52.91  .55351 1.5297 168.3 22.1 12.5 161
2019 01 15 05  08 34 20.543   +24 26 54.68  .55353 1.5298 168.3 22.1 12.7 161
2019 01 15 06  08 34 20.174   +24 27 56.44  .55355 1.5298 168.4 22.1 12.9 161
2019 01 15 07  08 34 19.803   +24 28 58.18  .55357 1.5299 168.4 22.1 13.1 161
2019 01 15 08  08 34 19.430   +24 29 59.92  .55359 1.5300 168.4 22.1 13.4 161
2019 01 15 09  08 34 19.055   +24 31 01.64  .55361 1.5300 168.5 22.1 13.6 161
2019 01 15 10  08 34 18.678   +24 32 03.35  .55363 1.5301 168.5 22.1 13.8 161
2019 01 15 11  08 34 18.299   +24 33 05.05  .55365 1.5302 168.5 22.1 14.1 161
2019 01 15 12  08 34 17.918   +24 34 06.74  .55367 1.5302 168.6 22.1 14.3 161
2019 01 15 13  08 34 17.535   +24 35 08.41  .55369 1.5303 168.6 22.1 14.5 161
2019 01 15 14  08 34 17.150   +24 36 10.07  .55372 1.5304 168.6 22.1 14.8 161
2019 01 15 15  08 34 16.763   +24 37 11.72  .55374 1.5304 168.7 22.1 15.0 161
2019 01 15 16  08 34 16.373   +24 38 13.36  .55376 1.5305 168.7 22.1 15.3 161
2019 01 15 17  08 34 15.982   +24 39 14.98  .55379 1.5305 168.7 22.1 15.5 161
2019 01 15 18  08 34 15.589   +24 40 16.59  .55381 1.5306 168.8 22.1 15.7 161
2019 01 15 19  08 34 15.194   +24 41 18.19  .55383 1.5307 168.8 22.1 16.0 161
2019 01 15 20  08 34 14.796   +24 42 19.77  .55386 1.5307 168.8 22.1 16.2 161
2019 01 15 21  08 34 14.397   +24 43 21.34  .55388 1.5308 168.9 22.1 16.5 161
2019 01 15 22  08 34 13.996   +24 44 22.89  .55391 1.5309 168.9 22.1 16.7 161
2019 01 15 23  08 34 13.593   +24 45 24.43  .55393 1.5309 168.9 22.1 17.0 161
2019 01 16 00  08 34 13.188   +24 46 25.96  .55396 1.5310 169.0 22.1 17.3 161
2019 01 16 01  08 34 12.781   +24 47 27.47  .55399 1.5311 169.0 22.1 17.5 161
2019 01 16 02  08 34 12.372   +24 48 28.97  .55401 1.5311 169.0 22.1 17.8 161
2019 01 16 03  08 34 11.961   +24 49 30.45  .55404 1.5312 169.1 22.1 18.0 161
2019 01 16 04  08 34 11.548   +24 50 31.92  .55407 1.5313 169.1 22.1 18.3 161
2019 01 16 05  08 34 11.133   +24 51 33.37  .55409 1.5313 169.1 22.1 18.6 161
2019 01 16 06  08 34 10.717   +24 52 34.81  .55412 1.5314 169.1 22.1 18.8 161
2019 01 16 07  08 34 10.298   +24 53 36.24  .55415 1.5315 169.2 22.1 19.1 161
2019 01 16 08  08 34 09.878   +24 54 37.64  .55418 1.5315 169.2 22.1 19.4 161
2019 01 16 09  08 34 09.455   +24 55 39.04  .55421 1.5316 169.2 22.1 19.6 161
2019 01 16 10  08 34 09.031   +24 56 40.41  .55424 1.5317 169.3 22.1 19.9 161